Regional Weather Roundup
Issued by NWS

Home | Current Version | Previous Version | Text Only | Print | Product List | Glossary Off
Versions: 1 2 3 4 5 6 7 8 9 10 11 12 13 14 15 16 17 18 19 20 21 22 23 24 25 26 27 28 29 30 31 32 33 34 35 36 37 38 39 40 41 42 43 44 45 46 47 48 49 50

000
ASUS43 KMKX 211221
RWRWI

WISCONSIN REGIONAL WEATHER ROUNDUP
NATIONAL WEATHER SERVICE MILWAUKEE/SULLIVAN WI
700 AM CDT TUE OCT 21 2014

NOTE: "FAIR" INDICATES FEW OR NO CLOUDS BELOW 12,000 FEET WITH NO
SIGNIFICANT WEATHER AND/OR OBSTRUCTIONS TO VISIBILITY.

WIZ001-002-006>008-014>016-023>028-211300-
NORTHWEST WISCONSIN

CITY           SKY/WX    TMP DP  RH WIND       PRES   REMARKS
SUPERIOR ARPT  CLOUDY    43  38  81 E6        30.22R
6HR MIN TEMP:  43; 6HR MAX TEMP:  47;

ASHLAND        CLOUDY    43  37  79 NE6       30.23R
6HR MIN TEMP:  43; 6HR MAX TEMP:  44;

HAYWARD        CLOUDY    42  34  73 E8        30.21R
6HR MIN TEMP:  42; 6HR MAX TEMP:  46;

SIREN          CLOUDY    42  39  88 CALM      30.19S
6HR MIN TEMP:  33; 6HR MAX TEMP:  42;

CUMBERLAND     CLOUDY    41  34  75 E5        30.19R
RICE LAKE      CLOUDY    43  35  73 NE5       30.21R
6HR MIN TEMP:  43; 6HR MAX TEMP:  46;

CHETEK         CLEAR     41  35  77 CALM      30.20R
6HR MIN TEMP:  41; 6HR MAX TEMP:  46;

LADYSMITH      CLOUDY    42  35  76 NE7       30.21R
6HR MIN TEMP:  38; 6HR MAX TEMP:  46;

EAU CLAIRE     CLEAR     36  34  92 NE6       30.19R WCI  31
6HR MIN TEMP:  32; 6HR MAX TEMP:  39;

MENOMONIE      FOG       34  34  97 CALM      30.19R VSB 1
6HR MIN TEMP:  34; 6HR MAX TEMP:  41;

NEW RICHMOND   CLEAR     30  30 100 CALM      30.18S
6HR MIN TEMP:  30; 6HR MAX TEMP:  36;

OSCEOLA        FOG       30  30 100 CALM      30.21S VSB 1/2
6HR MIN TEMP:  30; 6HR MAX TEMP:  34;

$$

WIZ003>005-009-010-017-018-211300-
NORTH CENTRAL WISCONSIN

CITY           SKY/WX    TMP DP  RH WIND       PRES   REMARKS
MANITOWISH WTR CLOUDY    37  35  93 E8        30.20R WCI  30
6HR MIN TEMP:  37; 6HR MAX TEMP:  39;

ARBOR VITAE    CLOUDY    39  35  85 NE5       30.19R
6HR MIN TEMP:  39; 6HR MAX TEMP:  42;

WOODRUFF       CLOUDY    39  35  85 NE5       30.19R
6HR MIN TEMP:  39; 6HR MAX TEMP:  42;

RHINELANDER    CLOUDY    38  34  85 NE5       30.19R WCI  34
6HR MIN TEMP:  38; 6HR MAX TEMP:  39;

EAGLE RIVER    CLOUDY    37  35  91 E8        30.18R WCI  31
6HR MIN TEMP:  37; 6HR MAX TEMP:  39;

LAND O LAKES   CLOUDY    37  34  91 NE5       30.20R WCI  33
6HR MIN TEMP:  37; 6HR MAX TEMP:  39;

PHILLIPS       CLOUDY    39  35  85 NE6       30.19R WCI  34
6HR MIN TEMP:  38; 6HR MAX TEMP:  41;

TOMAHAWK       CLOUDY    39  33  78 CALM      30.19R
6HR MIN TEMP:  39; 6HR MAX TEMP:  40;

MEDFORD        CLOUDY    39  34  80 NE12      30.18R WCI  32
6HR MIN TEMP:  36; 6HR MAX TEMP:  43;

MERRILL        CLOUDY    40  35  80 NE8       30.18R WCI  35
6HR MIN TEMP:  40; 6HR MAX TEMP:  42;

$$

WIZ029-030-035-036-043>047-211300-
CENTRAL WISCONSIN

CITY           SKY/WX    TMP DP  RH WIND       PRES   REMARKS
WAUSAU         CLOUDY    41  34  76 NE7       30.17R
6HR MIN TEMP:  41; 6HR MAX TEMP:  44;

MOSINEE        CLOUDY    39  36  87 NE7       30.18R WCI  34
MARSHFIELD     CLOUDY    40  35  83 NE8       30.17R WCI  34
6HR MIN TEMP:  39; 6HR MAX TEMP:  48;

STEVENS POINT  CLOUDY    38  34  85 NE8       30.18R WCI  32
6HR MIN TEMP:  36; 6HR MAX TEMP:  44; 6HR PCP:  0.02;

WAUPACA        PTCLDY    41  37  83 N3        30.18R
6HR MIN TEMP:  41; 6HR MAX TEMP:  48;

WAUTOMA        CLOUDY    40  37  89 CALM      30.18R
6HR MIN TEMP:  39; 6HR MAX TEMP:  48;

WISC RAPIDS    MOCLDY    39  34  82 NE5       30.19R
6HR MIN TEMP:  37; 6HR MAX TEMP:  48;

CAMP DOUGLAS   PTCLDY    36  36 100 CALM      30.18R
$$

WIZ011>013-019>022-031-037>040-048>050-211300-
NORTHEAST WISCONSIN

CITY           SKY/WX    TMP DP  RH WIND       PRES   REMARKS
ANTIGO         CLOUDY    38  35  86 N10       30.17R WCI  32
6HR MIN TEMP:  38; 6HR MAX TEMP:  40;

SHAWANO        CLOUDY    45  37  73 N12G18    30.17R
6HR MIN TEMP:  43; 6HR MAX TEMP:  46;

OCONTO         CLOUDY    42  38  86 N6        30.17R
6HR MIN TEMP:  42; 6HR MAX TEMP:  44;

STURGEON BAY   CLOUDY    45  36  70 NE15      30.16R
6HR MIN TEMP:  45; 6HR MAX TEMP:  45;

GREEN BAY      CLOUDY    43  37  79 N10       30.16R
6HR MIN TEMP:  43; 6HR MAX TEMP:  45;

MANITOWOC      CLOUDY    44  40  85 N14       30.14R
6HR MIN TEMP:  44; 6HR MAX TEMP:  47;

APPLETON       MOCLDY    43  36  75 N8        30.16R
CLINTONVILLE   CLOUDY    41  36  81 NE3       30.18R
OSHKOSH        CLOUDY    45  37  73 N12       30.16R
6HR MIN TEMP:  43; 6HR MAX TEMP:  47;

$$

WIZ032>034-041-042-053>061-211300-
SOUTHWEST WISCONSIN

CITY           SKY/WX    TMP DP  RH WIND       PRES   REMARKS
LA CROSSE      CLEAR     38  35  89 CALM      30.18R
6HR MIN TEMP:  37; 6HR MAX TEMP:  43;

SPARTA         PTCLDY    28  28  99 CALM      30.19R
6HR MIN TEMP:  28; 6HR MAX TEMP:  35;

VIROQUA        CLEAR     37  37 100 CALM      30.16R
6HR MIN TEMP:  35; 6HR MAX TEMP:  42;

BOSCOBEL       CLOUDY    33  31  92 CALM      30.18R FOG
6HR MIN TEMP:  32; 6HR MAX TEMP:  38;

PRAIRIE DU CHI FOG       36  35  94 CALM      30.17R VSB 1/2
6HR MIN TEMP:  35; 6HR MAX TEMP:  41;

PLATTEVILLE    CLEAR     37  36  94 CALM      30.16R
6HR MIN TEMP:  36; 6HR MAX TEMP:  43;

$$

WIZ056-057-062-063-064-067-068-211300-
SOUTH CENTRAL WISCONSIN

CITY           SKY/WX    TMP DP  RH WIND       PRES   REMARKS
REEDSBURG      CLEAR     40  37  86 NE5       30.17R
6HR MIN TEMP:  40; 6HR MAX TEMP:  48;

BARABOO/DELLS  CLEAR     39  35  83 NE5       30.17R
6HR MIN TEMP:  39; 6HR MAX TEMP:  48;

LONE ROCK      CLEAR     37  31  78 SW3       30.17R
6HR MIN TEMP:  36; 6HR MAX TEMP:  45;

MINERAL POINT  CLEAR     39  37  93 N6        30.14R WCI  35
MADISON        PTCLDY    40  37  89 N7        30.17R
6HR MIN TEMP:  40; 6HR MAX TEMP:  49;

MIDDLETON      CLEAR     42  38  86 NE7       30.17R
6HR MIN TEMP:  42; 6HR MAX TEMP:  48;

WATERTOWN      MOCLDY    41  38  88 N9        30.14R
6HR MIN TEMP:  41; 6HR MAX TEMP:  47;

MONROE         PTCLDY    43  39  87 N9        30.13R
JANESVILLE     MOCLDY    48  37  66 N8        30.13R
$$

WIZ051-052-058>065-066-070>072-211300-
SOUTHEAST WISCONSIN

CITY           SKY/WX    TMP DP  RH WIND       PRES   REMARKS
MILWAUKEE      MOCLDY    45  38  76 N9        30.12R
6HR MIN TEMP:  45; 6HR MAX TEMP:  49;

WAUKESHA       MOCLDY    41  36  81 N5        30.13R
MILWAUKEE/TIMM CLOUDY    45  37  76 N10       30.11S
RACINE         CLOUDY    46  39  76 N10       30.12R
6HR MIN TEMP:  45; 6HR MAX TEMP:  49;

BURLINGTON     CLEAR     41  36  81 N5        30.12R
6HR MIN TEMP:  41; 6HR MAX TEMP:  48;

KENOSHA        PTCLDY    44  39  82 N7        30.11R
6HR MIN TEMP:  44; 6HR MAX TEMP:  50;

FOND DU LAC    CLOUDY    45  37  73 NE16      30.15R
6HR MIN TEMP:  44; 6HR MAX TEMP:  48;

SHEBOYGAN      CLOUDY    45  37  73 N12       30.13R
6HR MIN TEMP:  43; 6HR MAX TEMP:  45;

WEST BEND      CLOUDY    43  36  75 N8        30.13R
JUNEAU         CLOUDY    42  37  80 N8        30.15R
6HR MIN TEMP:  41; 6HR MAX TEMP:  47;

$$

LSZ147-162-211300-
LAKE SUPERIOR

STATION/POSITION TIME  TEMP    WIND        PRES    WAVE
                       AIR SEA DIR/SP/G            HT/PER
                 (UTC) (F)     (DEG/KT/KT) (MB)    (FT/S)
W MID LAKE BUOY  1150   41 46   60/ 10/ 14 1024.6R   3/ 6
DEVILS ISLAND    1200   43      80/ 17/ 19 1024.7R
PORT WING        1100   44      80/  2/  5 1023.4R
SAXON HARBOR     1100   44      80/  5/  9 1023.0R
$$

LMZ867-665-643>646-211300-
LAKE MICHIGAN

STATION/POSITION TIME  TEMP    WIND        PRES    WAVE



USA.gov is the U.S. government's official web portal to all federal, state and local government web resources and services.